Regional Weather Roundup
Issued by NWS

Home | Current Version | Previous Version | Graphics & Text | Print | Product List | Glossary On
Versions: 1 2 3 4 5 6 7 8 9 10 11 12 13 14 15 16 17 18 19 20 21 22 23 24 25 26 27 28 29 30 31 32 33 34 35 36 37 38 39 40 41 42 43 44 45 46 47 48 49 50
000
ASUS43 KFSD 210402
RWRSD

WEATHER ROUNDUP FOR SOUTH DAKOTA
NATIONAL WEATHER SERVICE SIOUX FALLS SD
1000 PM CST SAT DEC 20 2014

NOTE: "FAIR" INDICATES FEW OR NO CLOUDS BELOW 12,000 FEET WITH NO
SIGNIFICANT WEATHER AND/OR OBSTRUCTIONS TO VISIBILITY.


SDZ001>005-009-010-012>017-210500-
NORTHWEST AND NORTH CENTRAL SOUTH DAKOTA

CITY           SKY/WX    TMP DP  RH WIND       PRES   REMARKS
BUFFALO          N/A     35  24  64 W5        29.71F
FAITH            N/A     36  25  64 SW5       29.80F
MOBRIDGE       CLOUDY    27  24  89 SE10      29.81F WCI  17
$$

SDZ012>016-024>037-041>051-057-063-072>074-210500-
SOUTHWEST AND SOUTH CENTRAL SOUTH DAKOTA

CITY           SKY/WX    TMP DP  RH WIND       PRES   REMARKS
RAPID CTY ARPT CLOUDY    35  26  69 CALM      29.81F
PIERRE         CLOUDY    20  17  88 E3        29.86F FOG
CUSTER         CLOUDY    31  22  69 W5        29.81F WCI  26
ELLSWORTH AFB  CLOUDY    35  26  70 CALM      29.80F
PHILIP         CLOUDY    31  25  78 W7        29.85F WCI  24
PINE RIDGE     MOCLDY    27  23  85 CALM      29.85F
WINNER         CLOUDY    34  26  72 SW7       29.89S WCI  28
$$

SDZ004>011-016>023-039-040-210500-
NORTHEAST SOUTH DAKOTA

CITY           SKY/WX    TMP DP  RH WIND       PRES   REMARKS
ABERDEEN       CLOUDY    31  28  89 S16       29.91R WCI  20
WATERTOWN      CLOUDY    29  28  96 S14       29.91S FOG     WCI  18
SISSETON         N/A     31  30  96 S10       29.91F WCI  22
$$

SDZ017-020-022-023-036>040-048>070-210500-
SOUTHEAST SOUTH DAKOTA

CITY           SKY/WX    TMP DP  RH WIND       PRES   REMARKS
SIOUX FALLS    FOG       30  29  96 S13       29.98S VSB 1   WCI  20
HURON          CLOUDY    30  29  96 S10       29.94S FOG     WCI  21
MITCHELL       CLOUDY    32  31  96 S12       29.95S WCI  23
YANKTON        CLOUDY    32  28  86 SE12      29.98F WCI  23
$$

ABBREVIATIONS USED IN REMARKS
   TC - TEMPERATURE IN CELSIUS
  WCI - WIND CHILL INDEX
   HX - HEAT INDEX
  VSB - VISIBILITY



USA.gov is the U.S. government's official web portal to all federal, state and local government web resources and services.